Location: Marstown
(39.5056°N, 77.0820°W)
Time: 22:50:37
(UTC-05:00)

Tiangong 2 - Visible Passes

Search period start: 18 January 2019 00:00
Search period end: 28 January 2019 00:00
Orbit: 380 x 392 km, 42.8° (Epoch: 18 January)

Date Brightness Start Highest point End Pass type
(mag) Time Alt. Az. Time Alt. Az. Time Alt. Az.
18 Jan 4.5 04:49:39 13° E 04:49:39 13° E 04:50:04 10° E visible
18 Jan 1.2 06:21:54 21° W 06:23:49 59° NNW 06:27:00 10° ENE visible
19 Jan 2.4 05:25:51 39° ENE 05:25:51 39° ENE 05:28:00 10° ENE visible
20 Jan 1.5 06:01:57 38° NW 06:02:40 47° N 06:05:48 10° ENE visible
21 Jan 3.8 05:05:44 18° ENE 05:05:44 18° ENE 05:06:45 10° ENE visible
21 Jan 1.7 06:37:59 13° WNW 06:40:38 45° N 06:43:44 10° E visible
22 Jan 1.8 05:41:43 42° NNE 05:41:43 42° NNE 05:44:36 10° ENE visible
23 Jan 4.7 04:45:26 10° ENE 04:45:26 10° ENE 04:45:30 10° ENE visible
23 Jan 1.4 06:17:41 23° WNW 06:19:27 55° N 06:22:36 10° E visible
24 Jan 2.7 05:21:23 32° ENE 05:21:23 32° ENE 05:23:26 10° E visible
25 Jan 1.1 05:57:21 44° WNW 05:58:12 76° NNE 06:01:23 10° ESE visible
26 Jan 3.8 05:01:05 20° E 05:01:05 20° E 05:02:16 10° E visible
26 Jan 1.9 06:33:21 13° W 06:35:51 40° SSW 06:38:53 10° SE visible
27 Jan 1.3 05:37:07 64° SSE 05:37:07 64° SSE 05:40:03 10° ESE visible
